DAL123 EGKK-VHHH

Flight info

Callsign DAL123
Flight time N/A
Altitude 39000
Route MIMFO1M MIMFO Y312 DVR UL9 KONAN UL607 SPI Q50 ARCKY L607 UBIDU DCT SULUS Z650 VEMUT DCT PEMEL DCT DITIS DCT TOVKA DCT ALAMU DCT BUD DCT BUDOP DCT IRLOX DCT STJ DCT DINRO N743 UDROS UM859 KARDE UN644 ROLIN N644 LAGAS M747 LUSAL N199 RASAM L88 METKA B476 DARVA/K0885F350 T898 OGOLI N193 SR L163 TISIB L141 KAMUD/K0878S1065 W186 SADAN L888 BIGOR W9 KDJ V69 BHS W237 IDBOR B330 GYA A599 POU R473 SIERA SIERA7A
Aircraft A359/H-SDE2E3GHIJ1J3J4J5LM1ORWXYZ/LB1D1

Departure

Time 2026-04-19 04:00
Airport London Gatwick Airport (EGKK)

Arrival

Time N/A
Airport Hong Kong International Airport (VHHH)
Time Latitude Longitude Altitude Speed Heading
2026-04-19 03:36 51.15539 -0.17176 210 ft 0 kts 135°
2026-04-19 03:44 51.15540 -0.17176 210 ft 0 kts 135°
2026-04-19 03:45 51.15540 -0.17177 210 ft 0 kts 135°
2026-04-19 03:49 51.15541 -0.17179 210 ft 2 kts 135°
2026-04-19 03:49 51.15559 -0.17208 216 ft 4 kts 134°
2026-04-19 03:49 51.15578 -0.17239 221 ft 4 kts 134°
2026-04-19 03:50 51.15597 -0.17269 221 ft 4 kts 134°
2026-04-19 03:50 51.15616 -0.17300 218 ft 3 kts 134°
2026-04-19 03:50 51.15620 -0.17305 221 ft 0 kts 134°
2026-04-19 03:55 51.15619 -0.17305 216 ft 0 kts 138°
2026-04-19 03:55 51.15615 -0.17304 216 ft 1 kts 158°
2026-04-19 03:55 51.15581 -0.17309 211 ft 7 kts 182°
2026-04-19 03:56 51.15548 -0.17305 214 ft 8 kts 173°
2026-04-19 03:56 51.15493 -0.17292 215 ft 8 kts 171°
2026-04-19 03:56 51.15433 -0.17273 215 ft 9 kts 168°
2026-04-19 03:56 51.15347 -0.17232 217 ft 10 kts 146°
2026-04-19 03:57 51.15330 -0.17171 218 ft 9 kts 91°
2026-04-19 03:57 51.15340 -0.17069 216 ft 10 kts 79°
2026-04-19 03:57 51.15355 -0.16961 213 ft 10 kts 77°
2026-04-19 03:57 51.15371 -0.16847 215 ft 11 kts 77°
2026-04-19 03:58 51.15376 -0.16739 218 ft 7 kts 121°
2026-04-19 03:58 51.15337 -0.16691 221 ft 7 kts 156°
2026-04-19 03:58 51.15285 -0.16668 220 ft 8 kts 166°
2026-04-19 03:58 51.15225 -0.16645 220 ft 9 kts 167°
2026-04-19 03:59 51.15160 -0.16651 219 ft 10 kts 206°
2026-04-19 03:59 51.15132 -0.16737 209 ft 0 kts 254°
2026-04-19 04:00 51.15092 -0.16997 212 ft 60 kts 257°
2026-04-19 04:00 51.14953 -0.18032 220 ft 129 kts 257°
2026-04-19 04:00 51.14713 -0.19745 352 ft 177 kts 258°
2026-04-19 04:00 51.14446 -0.21691 1057 ft 182 kts 261°
2026-04-19 04:01 51.14177 -0.23717 1806 ft 194 kts 263°
2026-04-19 04:01 51.13603 -0.28219 3040 ft 215 kts 278°
2026-04-19 04:01 51.14176 -0.30435 3654 ft 219 kts 316°
2026-04-19 04:02 51.15421 -0.31865 3981 ft 234 kts 339°
2026-04-19 04:02 51.16985 -0.32138 3990 ft 225 kts 10°
2026-04-19 04:02 51.18391 -0.31051 3991 ft 226 kts 40°
2026-04-19 04:02 51.19246 -0.28988 4000 ft 231 kts 68°
2026-04-19 04:03 51.19642 -0.26492 3996 ft 234 kts 76°
2026-04-19 04:03 51.19949 -0.23942 3993 ft 234 kts 76°
2026-04-19 04:03 51.20260 -0.21356 3993 ft 234 kts 76°
2026-04-19 04:03 51.20574 -0.18800 4017 ft 247 kts 76°
2026-04-19 04:04 51.20924 -0.16042 3999 ft 258 kts 76°
2026-04-19 04:04 51.21285 -0.13229 4102 ft 261 kts 75°
2026-04-19 04:04 51.21655 -0.10375 4556 ft 264 kts 76°
2026-04-19 04:04 51.22029 -0.07502 4921 ft 265 kts 76°
2026-04-19 04:05 51.22402 -0.04625 4993 ft 266 kts 76°
2026-04-19 04:05 51.22779 -0.01726 4998 ft 267 kts 76°
2026-04-19 04:05 51.23154 0.01173 4969 ft 267 kts 76°
2026-04-19 04:05 51.23530 0.04073 4965 ft 267 kts 76°
2026-04-19 04:06 51.23905 0.06976 4961 ft 267 kts 76°
2026-04-19 04:06 51.24280 0.09875 4958 ft 267 kts 76°
2026-04-19 04:06 51.24653 0.12773 4957 ft 267 kts 76°
2026-04-19 04:06 51.25026 0.15675 4956 ft 267 kts 76°
2026-04-19 04:07 51.25377 0.18585 4948 ft 268 kts 79°
2026-04-19 04:07 51.25396 0.21567 4998 ft 269 kts 92°
2026-04-19 04:07 51.25192 0.24553 5304 ft 273 kts 95°
2026-04-19 04:07 51.24956 0.27571 5763 ft 275 kts 95°
2026-04-19 04:08 51.24718 0.30596 5929 ft 275 kts 95°
2026-04-19 04:08 51.24482 0.33624 5941 ft 275 kts 95°
2026-04-19 04:08 51.24248 0.36660 5940 ft 276 kts 95°
2026-04-19 04:08 51.24015 0.39697 5938 ft 276 kts 95°
2026-04-19 04:09 51.23781 0.42737 5942 ft 276 kts 95°
2026-04-19 04:09 51.23547 0.45778 5940 ft 276 kts 95°
2026-04-19 04:09 51.23312 0.48817 5943 ft 276 kts 95°
2026-04-19 04:09 51.23077 0.51859 6009 ft 276 kts 95°
2026-04-19 04:10 51.22841 0.54915 6381 ft 280 kts 95°
2026-04-19 04:10 51.22601 0.58002 6993 ft 281 kts 95°
2026-04-19 04:10 51.22360 0.61099 7590 ft 283 kts 95°
2026-04-19 04:10 51.22115 0.64229 8152 ft 286 kts 95°
2026-04-19 04:11 51.21866 0.67393 8713 ft 289 kts 95°
2026-04-19 04:11 51.21614 0.70591 9296 ft 292 kts 95°
2026-04-19 04:11 51.21359 0.73822 9875 ft 295 kts 95°
2026-04-19 04:11 51.21098 0.77112 10284 ft 305 kts 95°
2026-04-19 04:12 51.20827 0.80547 10513 ft 319 kts 95°
2026-04-19 04:12 51.20546 0.84092 10742 ft 333 kts 95°
2026-04-19 04:12 51.20248 0.87831 10959 ft 347 kts 95°
2026-04-19 04:12 51.19935 0.91722 11177 ft 360 kts 95°
2026-04-19 04:13 51.19609 0.95750 11418 ft 372 kts 95°
2026-04-19 04:13 51.19273 0.99876 11809 ft 378 kts 95°
2026-04-19 04:13 51.18929 1.04063 12247 ft 383 kts 95°
2026-04-19 04:13 51.18579 1.08298 12660 ft 388 kts 95°
2026-04-19 04:14 51.18225 1.12578 13119 ft 391 kts 94°
2026-04-19 04:14 51.17865 1.16898 13542 ft 395 kts 94°
2026-04-19 04:14 51.17496 1.21317 13987 ft 399 kts 94°
2026-04-19 04:14 51.17127 1.25716 14383 ft 402 kts 94°
2026-04-19 04:15 51.16754 1.30153 14776 ft 406 kts 94°
2026-04-19 04:15 51.16382 1.34565 15143 ft 409 kts 94°
2026-04-19 04:15 51.16064 1.39073 15549 ft 411 kts 92°
2026-04-19 04:15 51.15821 1.43618 15965 ft 413 kts 90°
2026-04-19 04:16 51.15614 1.48212 16333 ft 417 kts 90°
2026-04-19 04:16 51.15415 1.52834 16731 ft 420 kts 90°
2026-04-19 04:16 51.15212 1.57483 17131 ft 423 kts 90°
2026-04-19 04:16 51.14998 1.62170 17533 ft 426 kts 90°
2026-04-19 04:17 51.14774 1.66887 17933 ft 429 kts 90°
2026-04-19 04:17 51.14541 1.71644 18326 ft 432 kts 91°
2026-04-19 04:17 51.14301 1.76433 18693 ft 435 kts 91°
2026-04-19 04:17 51.14056 1.81255 19041 ft 438 kts 91°
2026-04-19 04:18 51.13807 1.86105 19388 ft 441 kts 91°
2026-04-19 04:18 51.13555 1.90984 19761 ft 444 kts 91°
2026-04-19 04:18 51.13300 1.95894 20094 ft 447 kts 91°
2026-04-19 04:18 51.13041 2.00839 20455 ft 449 kts 91°
2026-04-19 04:19 51.12778 2.05813 20818 ft 452 kts 91°
2026-04-19 04:19 51.12512 2.10805 21175 ft 454 kts 91°
2026-04-19 04:19 51.12242 2.15831 21528 ft 457 kts 91°
2026-04-19 04:19 51.11969 2.20889 21881 ft 460 kts 91°
2026-04-19 04:20 51.11692 2.25970 22233 ft 462 kts 91°
2026-04-19 04:20 51.11411 2.31080 22576 ft 465 kts 91°
2026-04-19 04:20 51.11126 2.36225 22933 ft 468 kts 91°
2026-04-19 04:20 51.10837 2.41390 23298 ft 471 kts 91°
2026-04-19 04:21 51.10545 2.46591 23645 ft 473 kts 91°
2026-04-19 04:21 51.10248 2.51824 23965 ft 476 kts 91°
2026-04-19 04:21 51.09948 2.57081 24265 ft 478 kts 91°
2026-04-19 04:21 51.09614 2.62358 24578 ft 482 kts 94°
2026-04-19 04:22 51.08956 2.67618 24857 ft 487 kts 100°
2026-04-19 04:22 51.08123 2.72854 25148 ft 490 kts 102°
2026-04-19 04:22 51.07211 2.78093 25451 ft 492 kts 103°
2026-04-19 04:22 51.06257 2.83330 25748 ft 495 kts 104°
2026-04-19 04:23 51.05286 2.88570 26196 ft 493 kts 104°
2026-04-19 04:23 51.04312 2.93799 26538 ft 494 kts 104°
2026-04-19 04:23 51.03335 2.99057 26796 ft 497 kts 104°
2026-04-19 04:23 51.02357 3.04338 27071 ft 500 kts 104°
2026-04-19 04:24 51.01375 3.09649 27334 ft 502 kts 104°
2026-04-19 04:24 51.00391 3.14974 27600 ft 504 kts 104°
2026-04-19 04:24 50.99401 3.20324 27878 ft 506 kts 105°
2026-04-19 04:24 50.98403 3.25700 28149 ft 509 kts 105°
2026-04-19 04:25 50.97400 3.31094 28425 ft 511 kts 105°
2026-04-19 04:25 50.96393 3.36495 28860 ft 509 kts 105°
2026-04-19 04:25 50.95386 3.41873 29117 ft 511 kts 105°
2026-04-19 04:25 50.94382 3.47220 29320 ft 513 kts 106°
2026-04-19 04:26 50.93359 3.52650 29533 ft 516 kts 106°
2026-04-19 04:26 50.92327 3.58111 29764 ft 518 kts 106°
2026-04-19 04:26 50.91290 3.63580 29985 ft 520 kts 106°
2026-04-19 04:26 50.90241 3.69070 30201 ft 522 kts 106°
2026-04-19 04:27 50.89182 3.74575 30394 ft 523 kts 106°
2026-04-19 04:27 50.88116 3.80087 30656 ft 523 kts 107°
2026-04-19 04:27 50.87049 3.85585 30930 ft 522 kts 107°
2026-04-19 04:27 50.85964 3.91165 31077 ft 524 kts 107°
2026-04-19 04:28 50.84903 3.96606 31226 ft 526 kts 107°
2026-04-19 04:28 50.83821 4.02143 31370 ft 527 kts 107°
2026-04-19 04:28 50.82736 4.07681 31591 ft 527 kts 107°
2026-04-19 04:28 50.81649 4.13211 31806 ft 526 kts 108°
2026-04-19 04:29 50.80562 4.18730 32042 ft 526 kts 108°
2026-04-19 04:29 50.79471 4.24253 32160 ft 527 kts 108°
2026-04-19 04:29 50.78374 4.29786 32262 ft 529 kts 108°
2026-04-19 04:29 50.77271 4.35335 32476 ft 528 kts 108°
2026-04-19 04:30 50.76170 4.40861 32725 ft 527 kts 108°
2026-04-19 04:30 50.75068 4.46375 32938 ft 526 kts 108°
2026-04-19 04:30 50.73963 4.51885 33127 ft 526 kts 108°
2026-04-19 04:30 50.72857 4.57388 33344 ft 526 kts 108°
2026-04-19 04:31 50.71761 4.62884 33529 ft 525 kts 108°
2026-04-19 04:31 50.70685 4.68389 33764 ft 524 kts 108°
2026-04-19 04:31 50.69625 4.73869 34040 ft 521 kts 108°
2026-04-19 04:31 50.68568 4.79336 34227 ft 521 kts 108°
2026-04-19 04:32 50.67510 4.84797 34352 ft 521 kts 108°
2026-04-19 04:32 50.66446 4.90261 34474 ft 521 kts 108°
2026-04-19 04:32 50.65360 4.95723 34598 ft 521 kts 109°
2026-04-19 04:32 50.64253 5.01158 34728 ft 521 kts 109°
2026-04-19 04:33 50.63135 5.06580 34858 ft 521 kts 109°
2026-04-19 04:33 50.62012 5.11998 34969 ft 521 kts 109°
2026-04-19 04:33 50.60886 5.17421 35122 ft 520 kts 110°
2026-04-19 04:33 50.59759 5.22840 35205 ft 521 kts 110°
2026-04-19 04:34 50.57488 5.33736 35220 ft 527 kts 110°
2026-04-19 04:34 50.55199 5.44677 35212 ft 526 kts 110°
2026-04-19 04:35 50.52903 5.55598 35213 ft 526 kts 110°
2026-04-19 04:35 50.49906 5.65896 35201 ft 520 kts 124°
2026-04-19 04:36 50.46034 5.75475 35197 ft 520 kts 127°
2026-04-19 04:36 50.42014 5.84902 35195 ft 519 kts 127°
2026-04-19 04:37 50.37986 5.94308 35177 ft 520 kts 127°
2026-04-19 04:37 50.33974 6.03712 35181 ft 520 kts 127°
2026-04-19 04:38 50.30437 6.13585 35165 ft 524 kts 114°
2026-04-19 04:38 50.28637 6.24680 35151 ft 528 kts 102°
2026-04-19 04:39 50.27418 6.36021 35143 ft 529 kts 101°
2026-04-19 04:39 50.26266 6.47385 35134 ft 529 kts 101°
2026-04-19 04:40 50.25072 6.58734 35133 ft 529 kts 102°
2026-04-19 04:40 50.23839 6.70072 35132 ft 529 kts 102°
2026-04-19 04:41 50.22586 6.81399 35134 ft 529 kts 102°
2026-04-19 04:41 50.21784 6.92832 35125 ft 530 kts 97°
2026-04-19 04:42 50.21164 7.04305 35129 ft 530 kts 96°
2026-04-19 04:42 50.20670 7.13828 35129 ft 530 kts 96°
2026-04-19 04:43 50.20061 7.25289 35130 ft 530 kts 97°
2026-04-19 04:43 50.18802 7.36535 35123 ft 525 kts 109°
2026-04-19 04:44 50.16651 7.47408 35131 ft 524 kts 111°
2026-04-19 04:44 50.14340 7.58187 35121 ft 524 kts 111°
2026-04-19 04:45 50.12013 7.68941 35125 ft 524 kts 111°
2026-04-19 04:45 50.09693 7.79705 35101 ft 524 kts 111°
2026-04-19 04:46 50.07746 7.90636 35106 ft 527 kts 100°
2026-04-19 04:46 50.07410 8.02049 35104 ft 529 kts 91°
2026-04-19 04:47 50.07526 8.13507 35102 ft 530 kts 90°
2026-04-19 04:47 50.07700 8.24970 35089 ft 530 kts 90°
2026-04-19 04:48 50.07836 8.36443 35100 ft 531 kts 90°
2026-04-19 04:48 50.07937 8.47941 35101 ft 531 kts 91°
2026-04-19 04:49 50.08020 8.59431 35103 ft 531 kts 91°
2026-04-19 04:49 50.08092 8.70927 35101 ft 531 kts 91°
2026-04-19 04:50 50.08153 8.82421 35090 ft 531 kts 91°
2026-04-19 04:50 50.08204 8.93918 35081 ft 531 kts 91°
2026-04-19 04:51 50.08243 9.05327 35068 ft 531 kts 91°
2026-04-19 04:51 50.08271 9.16821 35051 ft 531 kts 91°
2026-04-19 04:52 50.08287 9.28330 35057 ft 532 kts 92°
2026-04-19 04:52 50.08291 9.39849 35055 ft 533 kts 92°
2026-04-19 04:53 50.08286 9.51390 35057 ft 532 kts 92°
2026-04-19 04:53 50.08269 9.62914 35061 ft 533 kts 92°
2026-04-19 04:54 50.08240 9.74438 35058 ft 532 kts 92°
2026-04-19 04:54 50.08200 9.85947 35058 ft 532 kts 92°
2026-04-19 04:55 50.08148 9.97456 35053 ft 532 kts 92°
2026-04-19 04:55 50.08085 10.08964 35049 ft 532 kts 92°
2026-04-19 04:56 50.08011 10.20465 35046 ft 530 kts 92°
2026-04-19 04:56 50.07925 10.31928 35043 ft 530 kts 92°
2026-04-19 04:57 50.07828 10.43390 35043 ft 530 kts 92°
2026-04-19 04:57 50.07720 10.54856 35043 ft 530 kts 92°
2026-04-19 04:58 50.07600 10.66291 35039 ft 527 kts 93°
2026-04-19 04:58 50.06492 10.77438 35043 ft 519 kts 108°
2026-04-19 04:59 50.04387 10.88185 35042 ft 519 kts 111°
2026-04-19 04:59 50.02103 10.98820 35041 ft 518 kts 112°
2026-04-19 05:00 49.99803 11.09436 35046 ft 518 kts 112°
2026-04-19 05:00 49.97536 11.19965 35048 ft 517 kts 111°